Location: Nitra
(0.0000°N, 18.0833°E)
Time: 09:03:04
(UTC+01:00)

CZ-4B R/B - Pass Details

Date: 25 September 2022
Orbit: 808 x 881 km, 99.0° (Epoch: 28 November)

Event Time Altitude Azimuth Distance (km) Brightness Sun altitude
Rises 20:28:16 0° 179° (S) 3,329 6.3 -27.2°
Reaches altitude 10° 20:30:42 10° 185° (S) 2,392 5.6 -27.9°
Maximum altitude 20:35:42 45° 257° (WSW) 1,092 4.1 -29.1°
Drops below altitude 10° 20:40:42 10° 329° (NNW) 2,388 5.9 -30.4°
Sets 20:43:08 0° 335° (NNW) 3,323 6.6 -31.0°
